ZAF004 LFMN-LFLL

Flight info

Callsign ZAF004
Flight time N/A
Altitude 30000
Route BODRU DCT KOTIT/N0298F180 Y42 LASUR Z42 PINED
Aircraft FA50/M-SDFGHIM1RWXY/H

Departure

Time 2026-05-01 12:54
Airport Nice-Côte d'Azur Airport (LFMN)

Arrival

Time N/A
Airport Lyon Saint-Exupéry Airport (LFLL)
Time Latitude Longitude Altitude Speed Heading
2026-05-01 12:22 43.65662 7.20274 16 ft 0 kts 45°
2026-05-01 12:45 43.65663 7.20275 16 ft 0 kts 37°
2026-05-01 12:45 43.65673 7.20272 17 ft 1 kts 308°
2026-05-01 12:45 43.65673 7.20264 16 ft 0 kts 256°
2026-05-01 12:46 43.65663 7.20257 16 ft 3 kts 177°
2026-05-01 12:46 43.65646 7.20269 16 ft 0 kts 144°
2026-05-01 12:46 43.65639 7.20277 16 ft 2 kts 139°
2026-05-01 12:46 43.65624 7.20297 16 ft 4 kts 135°
2026-05-01 12:47 43.65599 7.20328 15 ft 5 kts 140°
2026-05-01 12:47 43.65575 7.20350 15 ft 5 kts 157°
2026-05-01 12:47 43.65519 7.20302 14 ft 15 kts 225°
2026-05-01 12:47 43.65446 7.20204 11 ft 13 kts 222°
2026-05-01 12:48 43.65370 7.20186 10 ft 9 kts 156°
2026-05-01 12:48 43.65326 7.20229 10 ft 5 kts 135°
2026-05-01 12:48 43.65306 7.20256 10 ft 2 kts 135°
2026-05-01 12:48 43.65292 7.20275 10 ft 6 kts 135°
2026-05-01 12:49 43.65240 7.20348 10 ft 13 kts 135°
2026-05-01 12:49 43.65163 7.20452 10 ft 14 kts 136°
2026-05-01 12:49 43.65134 7.20493 10 ft 6 kts 135°
2026-05-01 12:49 43.65068 7.20516 10 ft 13 kts 183°
2026-05-01 12:50 43.64986 7.20455 10 ft 9 kts 224°
2026-05-01 12:50 43.64959 7.20418 10 ft 6 kts 225°
2026-05-01 12:50 43.64939 7.20389 10 ft 1 kts 225°
2026-05-01 12:50 43.64934 7.20382 10 ft 2 kts 225°
2026-05-01 12:51 43.64911 7.20350 10 ft 6 kts 225°
2026-05-01 12:51 43.64864 7.20288 10 ft 12 kts 217°
2026-05-01 12:51 43.64796 7.20417 10 ft 1 kts 45°
2026-05-01 12:53 43.64801 7.20425 10 ft 7 kts 45°
2026-05-01 12:53 43.65005 7.20704 11 ft 78 kts 45°
2026-05-01 12:53 43.65545 7.21466 14 ft 142 kts 47°
2026-05-01 12:54 43.66344 7.22551 273 ft 175 kts 47°
2026-05-01 12:54 43.67215 7.25808 1412 ft 217 kts 108°
2026-05-01 12:54 43.66268 7.27510 1967 ft 243 kts 144°
2026-05-01 12:55 43.63108 7.30128 3088 ft 287 kts 142°
2026-05-01 12:55 43.61195 7.31183 3581 ft 313 kts 169°
2026-05-01 12:55 43.58990 7.31059 4078 ft 335 kts 193°
2026-05-01 12:56 43.56859 7.29599 4570 ft 355 kts 217°
2026-05-01 12:56 43.55228 7.26966 5076 ft 370 kts 241°
2026-05-01 12:56 43.54483 7.23613 5993 ft 370 kts 264°
2026-05-01 12:56 43.54705 7.20141 6947 ft 368 kts 287°
2026-05-01 12:57 43.55866 7.17036 7912 ft 365 kts 309°
2026-05-01 12:57 43.60028 7.13297 9874 ft 365 kts 332°
2026-05-01 12:57 43.62128 7.11382 10889 ft 365 kts 323°
2026-05-01 12:58 43.64083 7.09237 11884 ft 359 kts 320°
2026-05-01 12:58 43.65969 7.07078 12865 ft 352 kts 319°
2026-05-01 12:58 43.67794 7.04994 13832 ft 345 kts 319°
2026-05-01 12:59 43.71381 7.00898 15792 ft 329 kts 320°
2026-05-01 12:59 43.73121 6.98928 16779 ft 320 kts 320°
2026-05-01 12:59 43.76587 6.94956 17343 ft 343 kts 319°
2026-05-01 13:00 43.80427 6.90548 17328 ft 375 kts 319°
2026-05-01 13:00 43.82450 6.88224 17334 ft 388 kts 320°
2026-05-01 13:01 43.86671 6.83367 17992 ft 394 kts 319°
2026-05-01 13:01 43.88741 6.80981 18720 ft 386 kts 319°
2026-05-01 13:01 43.92815 6.76281 20194 ft 371 kts 319°
2026-05-01 13:02 43.94699 6.73917 20924 ft 363 kts 316°
2026-05-01 13:07 44.27642 6.26048 28326 ft 380 kts 308°
2026-05-01 13:07 44.29311 6.23158 28326 ft 386 kts 308°
2026-05-01 13:08 44.32714 6.17258 28324 ft 397 kts 308°
2026-05-01 13:08 44.36202 6.11198 28317 ft 405 kts 308°
2026-05-01 13:09 44.39765 6.04994 28304 ft 413 kts 308°
2026-05-01 13:09 44.43377 5.98693 28285 ft 418 kts 308°
2026-05-01 13:10 44.47014 5.92332 28270 ft 422 kts 308°
2026-05-01 13:10 44.50695 5.85880 28262 ft 426 kts 308°
2026-05-01 13:11 44.54388 5.79393 28261 ft 428 kts 308°
2026-05-01 13:11 44.58093 5.72870 28260 ft 429 kts 308°
2026-05-01 13:12 44.61791 5.66344 28259 ft 430 kts 308°
2026-05-01 13:12 44.65757 5.60081 28247 ft 432 kts 320°
2026-05-01 13:12 44.68288 5.57831 28234 ft 438 kts 334°
2026-05-01 13:13 44.71251 5.56814 28264 ft 445 kts 347°
2026-05-01 13:13 44.77409 5.55851 28256 ft 447 kts 348°
2026-05-01 13:14 44.83467 5.54851 28240 ft 444 kts 348°
2026-05-01 13:14 44.86589 5.54332 27791 ft 437 kts 348°
2026-05-01 13:14 44.89518 5.53848 27267 ft 420 kts 348°
2026-05-01 13:14 44.92361 5.53375 26740 ft 404 kts 348°
2026-05-01 13:15 44.94128 5.53081 26403 ft 395 kts 348°
2026-05-01 13:15 44.96826 5.52631 25875 ft 383 kts 348°
2026-05-01 13:15 45.00270 5.52285 25173 ft 374 kts 355°
2026-05-01 13:15 45.02778 5.52174 24667 ft 363 kts 352°
2026-05-01 13:16 45.05290 5.52081 24143 ft 357 kts 354°
2026-05-01 13:16 45.07707 5.52044 23632 ft 351 kts 354°
2026-05-01 13:16 45.09854 5.52022 23174 ft 346 kts 354°
2026-05-01 13:17 45.17042 5.51955 21628 ft 334 kts 355°
2026-05-01 13:17 45.19349 5.51930 21123 ft 331 kts 355°
2026-05-01 13:18 45.23873 5.51881 20118 ft 325 kts 355°
2026-05-01 13:18 45.25387 5.51865 19778 ft 323 kts 355°
2026-05-01 13:18 45.28309 5.51537 19116 ft 315 kts 345°
2026-05-01 13:18 45.30420 5.50864 18617 ft 311 kts 342°
2026-05-01 13:19 45.32494 5.50111 18115 ft 308 kts 341°
2026-05-01 13:19 45.34545 5.49346 17614 ft 306 kts 341°
2026-05-01 13:19 45.38397 5.47061 16589 ft 299 kts 329°
2026-05-01 13:20 45.40230 5.45715 15970 ft 301 kts 329°
2026-05-01 13:20 45.42093 5.44350 15345 ft 303 kts 330°
2026-05-01 13:20 45.43948 5.42992 14725 ft 304 kts 330°
2026-05-01 13:21 45.47678 5.40256 13481 ft 306 kts 330°
2026-05-01 13:21 45.49552 5.38880 12858 ft 306 kts 330°
2026-05-01 13:21 45.51416 5.37510 12237 ft 306 kts 330°
2026-05-01 13:21 45.53291 5.36131 11613 ft 306 kts 330°
2026-05-01 13:22 45.55127 5.34781 11001 ft 305 kts 329°
2026-05-01 13:22 45.56989 5.33408 10394 ft 305 kts 329°
2026-05-01 13:22 45.58836 5.32049 10081 ft 294 kts 329°
2026-05-01 13:22 45.60646 5.30713 9476 ft 295 kts 329°
2026-05-01 13:23 45.62453 5.29380 8859 ft 297 kts 329°
2026-05-01 13:23 45.63661 5.28488 8432 ft 292 kts 329°
2026-05-01 13:23 45.65415 5.27193 7798 ft 284 kts 329°
2026-05-01 13:23 45.67665 5.25527 6829 ft 280 kts 329°
2026-05-01 13:24 45.69392 5.24249 6076 ft 278 kts 329°
2026-05-01 13:24 45.71061 5.23012 5339 ft 276 kts 330°
2026-05-01 13:24 45.72200 5.22168 4836 ft 276 kts 330°
2026-05-01 13:25 45.76242 5.19169 3245 ft 286 kts 331°
2026-05-01 13:25 45.77885 5.17954 3356 ft 247 kts 330°
2026-05-01 13:25 45.79370 5.16848 3214 ft 234 kts 330°
2026-05-01 13:25 45.80778 5.15799 3229 ft 226 kts 329°
2026-05-01 13:26 45.81606 5.14976 3363 ft 214 kts 315°
2026-05-01 13:26 45.82561 5.12540 3359 ft 220 kts 278°
2026-05-01 13:26 45.82403 5.10411 3411 ft 220 kts 248°
2026-05-01 13:26 45.81498 5.08650 3264 ft 228 kts 216°
2026-05-01 13:27 45.79992 5.08158 2939 ft 230 kts 174°
2026-05-01 13:27 45.78509 5.08558 2418 ft 208 kts 171°
2026-05-01 13:27 45.75780 5.08911 1517 ft 202 kts 174°
2026-05-01 13:28 45.73065 5.09239 823 ft 177 kts 174°
2026-05-01 13:28 45.72002 5.09412 865 ft 141 kts 172°